User: anonymous   Login
Location: ??
(34.7707°N, 135.6540°E)
Time: 14:16:49
(UTC+00:00)
Language:

USA 238 - Orbit

View from above orbital plane
View from above orbital plane
View from above satellite
View from above satellite

Ground track
Ground track

The orbit data is extracted from the following two-line orbital elements,

1 38758U 12048A   21161.03767489 0.00000000  00000-0  00000-0 0    04
2 38758  63.4490 201.0701 0156844 359.2039   0.7528 13.40813917    08
Epoch (UTC): 10 June 2021 00:54:15
Eccentricity: 0.0156844
inclination: 63.4490°
perigee height: 989 km
apogee height: 1223 km
right ascension of ascending node: 201.0701°
argument of perigee: 359.2039°
revolutions per day: 13.40813917
mean anomaly at epoch: 0.7528°
orbit number at epoch: 0

The dashed part of the orbit path shows where the satellite is in the earth's shadow,  

DLR